Location: Champs
(48.8539°N, 2.6040°E)
Time: 05:32:11
(UTC+00:00)

CZ-4B R/B - Pass Details

Date: 26 October 2021
Orbit: 702 x 803 km, 98.9° (Epoch: 04 December)

Event Time Altitude Azimuth Distance (km) Brightness Sun altitude
Rises 03:45:08 0° 15° (NNE) 3,320 7.1 -27.1°
Reaches altitude 10° 03:47:29 10° 15° (NNE) 2,379 6.3 -26.7°
Maximum altitude 03:52:46 90° 88° (E) 793 3.4 -25.9°
Enters shadow 03:53:33 66° 195° (SSW) 857 3.5 -25.8°
